TimeCST,TemperatureF,Dew PointF,Humidity,Sea Level PressureIn,VisibilityMPH,Wind Direction,Wind SpeedMPH,Gust SpeedMPH,PrecipitationIn,Events,Conditions,WindDirDegrees,DateUTC
12:18 AM,35.6,35.6,100,30.04,10.0,NNW,13.8,20.7,N/A,,Overcast,330,2013-11-06 06:18:00
12:51 AM,35.6,35.6,100,30.04,7.0,NW,12.7,-,N/A,Snow,Light Snow,320,2013-11-06 06:51:00
12:56 AM,35.6,35.6,100,30.04,7.0,NW,20.7,27.6,N/A,Snow,Light Snow,320,2013-11-06 06:56:00
12:58 AM,35.6,35.4,99,30.07,7.0,NNW,18.4,27.6,0.00,Snow,Light Snow,330,2013-11-06 06:58:00
1:09 AM,35.6,35.6,100,30.04,7.0,NW,15.0,-,N/A,,Light Drizzle,320,2013-11-06 07:09:00
1:16 AM,35.6,35.6,100,30.04,7.0,NNW,19.6,23.0,N/A,Rain-Snow,Light Rain,330,2013-11-06 07:16:00
1:26 AM,35.6,35.6,100,30.04,6.0,NNW,15.0,23.0,N/A,Rain-Snow,Light Rain,330,2013-11-06 07:26:00
1:58 AM,35.1,34.9,99,30.10,10.0,NNW,16.1,20.7,0.00,Rain,Light Rain,340,2013-11-06 07:58:00
2:17 AM,35.6,33.8,93,30.06,9.0,NNW,18.4,23.0,N/A,Rain-Snow,Light Rain,330,2013-11-06 08:17:00
2:48 AM,35.6,35.6,100,30.07,10.0,NNW,15.0,24.2,N/A,,Overcast,330,2013-11-06 08:48:00
2:58 AM,35.1,34.9,99,30.10,10.0,NNW,13.8,20.7,0.00,,Overcast,330,2013-11-06 08:58:00
3:58 AM,35.2,34.7,98,30.14,10.0,NNW,10.4,-,N/A,,Overcast,330,2013-11-06 09:58:00
4:58 AM,34.3,34.0,99,30.14,10.0,NW,13.8,-,N/A,,Mostly Cloudy,320,2013-11-06 10:58:00
5:58 AM,34.5,33.6,97,30.17,10.0,NW,10.4,-,N/A,,Overcast,320,2013-11-06 11:58:00
6:58 AM,34.7,33.3,94,30.20,10.0,NW,10.4,-,N/A,,Overcast,320,2013-11-06 12:58:00
7:23 AM,35.6,33.8,93,30.17,10.0,NW,5.8,-,N/A,,Mostly Cloudy,310,2013-11-06 13:23:00
7:33 AM,35.6,33.8,93,30.18,10.0,NW,6.9,-,N/A,,Overcast,310,2013-11-06 13:33:00
7:58 AM,35.1,33.8,95,30.23,10.0,NW,9.2,-,N/A,,Overcast,320,2013-11-06 13:58:00
8:13 AM,35.6,32.0,87,30.20,10.0,NNW,9.2,-,N/A,,Overcast,330,2013-11-06 14:13:00
8:58 AM,36.1,33.6,91,30.27,10.0,NNW,6.9,-,N/A,,Overcast,330,2013-11-06 14:58:00
9:23 AM,37.4,32.0,81,30.23,10.0,NW,8.1,-,N/A,,Mostly Cloudy,310,2013-11-06 15:23:00
9:58 AM,37.4,34.0,87,30.28,10.0,NW,8.1,-,N/A,,Overcast,320,2013-11-06 15:58:00
10:03 AM,37.4,32.0,81,30.24,10.0,WNW,6.9,-,N/A,,Overcast,300,2013-11-06 16:03:00
10:18 AM,37.4,32.0,81,30.24,10.0,NNW,9.2,-,N/A,,Overcast,330,2013-11-06 16:18:00
10:23 AM,37.4,32.0,81,30.24,10.0,NNW,9.2,-,N/A,,Mostly Cloudy,330,2013-11-06 16:23:00
10:58 AM,39.0,33.4,80,30.28,10.0,NW,8.1,-,N/A,,Overcast,310,2013-11-06 16:58:00
11:58 AM,40.1,34.0,79,30.28,10.0,NW,8.1,-,N/A,,Overcast,310,2013-11-06 17:58:00
12:53 PM,41.0,33.8,76,30.22,10.0,NW,5.8,-,N/A,,Mostly Cloudy,320,2013-11-06 18:53:00
12:58 PM,41.0,33.8,76,30.26,10.0,NW,5.8,-,N/A,,Mostly Cloudy,310,2013-11-06 18:58:00
1:08 PM,41.0,32.0,70,30.22,10.0,WNW,8.1,-,N/A,,Mostly Cloudy,300,2013-11-06 19:08:00
1:43 PM,41.0,33.8,76,30.23,10.0,WNW,8.1,-,N/A,,Scattered Clouds,300,2013-11-06 19:43:00
1:58 PM,42.1,34.9,76,30.27,10.0,WNW,9.2,-,N/A,,Mostly Cloudy,290,2013-11-06 19:58:00
2:58 PM,42.6,34.7,74,30.27,10.0,WNW,8.1,-,N/A,,Clear,290,2013-11-06 20:58:00
3:58 PM,42.4,34.0,72,30.27,10.0,WNW,4.6,-,N/A,,Overcast,290,2013-11-06 21:58:00
4:58 PM,41.5,33.3,72,30.26,10.0,WSW,3.5,-,N/A,,Overcast,240,2013-11-06 22:58:00
5:58 PM,40.6,33.8,77,30.28,10.0,WSW,3.5,-,N/A,,Mostly Cloudy,240,2013-11-06 23:58:00
6:58 PM,40.1,34.2,79,30.29,10.0,SSW,3.5,-,N/A,,Mostly Cloudy,210,2013-11-07 00:58:00
7:58 PM,37.8,34.2,87,30.30,10.0,West,8.1,-,N/A,,Clear,270,2013-11-07 01:58:00
8:58 PM,34.5,32.9,94,30.30,10.0,West,3.5,-,N/A,,Clear,270,2013-11-07 02:58:00
9:58 PM,34.2,32.9,95,30.31,10.0,Calm,Calm,-,N/A,,Clear,0,2013-11-07 03:58:00
10:58 PM,33.3,32.9,99,30.31,10.0,South,3.5,-,N/A,,Clear,170,2013-11-07 04:58:00
11:28 PM,28.4,26.6,93,30.27,9.0,Calm,Calm,-,N/A,,Clear,0,2013-11-07 05:28:00
11:53 PM,28.4,28.4,100,30.27,10.0,SSE,3.5,-,N/A,,Clear,160,2013-11-07 05:53:00
11:58 PM,28.0,27.9,99,30.31,10.0,SSE,2.3,-,N/A,,Clear,160,2013-11-07 05:58:00